Simultaneous Nadir Overpasses (SNOs) Predictions

Prediction of SNOs between GOES-17 and NOAA-19 Satellite Orbit:

Table of predicted SNOs for the next 14.0 days since TLE Epoch: 11/12/2022
Index Date Time (GOES-17) GOES-17 Lat,Lon NOAA-19 Lat,Lon Distance(km) Time Diff (sec)
1 11/14/2022 05:26:46 0.03,-137.32 -0.38,-139.20 213.82 80
2 11/15/2022 05:12:11 0.02,-137.32 0.26,-136.29 116.91 80
3 11/16/2022 05:00:17 0.02,-137.31 0.91,-133.39 447.51 80
4 11/17/2022 17:32:29 -0.02,-137.31 0.83,-141.11 432.64 80
5 11/18/2022 17:20:35 -0.01,-137.31 0.17,-138.21 102.20 80
6 11/19/2022 17:11:20 -0.01,-137.30 -0.49,-135.30 228.17 80
7 11/22/2022 05:31:55 0.01,-137.25 -0.66,-140.18 333.97 80
8 11/23/2022 05:20:00 0.01,-137.23 0.01,-137.27 4.46 80
9 11/24/2022 05:07:16 0.00,-137.22 0.67,-134.37 324.93 30
